Airfield :







YOU CAN JOIN US ON...

 
LOGIN :

Register | Disclaimer

   EN    FR    IT 

 









Legend :    VFR   Marginal VFR   IFR   Intensive IFR   Very Intensive IFR
Visi :
Ceiling :
>= 8 km
>= 3000ft
5 to 8 km
1000 to 3000 ft
1500m to 5 km
500 to 1000 ft
800 to 1500m
200 to 500 ft
< 800m
< 200 ft
Symbols :   Thunderstorms  Fog  Heavy snow  Heavy precipitations  Wind > 20 kt






- Airport Elevation : 603 ft
- IATA code : LEB


KLEB - Lebanon Municipal

CURRENT METAR :
  • 072053Z 33007KT 10SM CLR 15/M07 A2971 RMK AO2 SLP063 T01501067 56029

EXPIRED METARs :
  • 071953Z 33009KT 10SM CLR 14/M07 A2973 RMK AO2 SLP068 T01441067
  • 071853Z 33012G21KT 10SM CLR 14/M08 A2976 RMK AO2 SLP080 T01391078

TAF KLEB
Valid from the 07 at 18:00 until the 08 at 18:00 UTC


071720Z 0718/0818 32012G18KT P6SM SCT080
FM080000 VRB03KT P6SM FEW080



MET'MAP, your aeronautical weather chart ! - Copyright ORBIFLY December 2007 - Disclaimer

ORBIFLY MET'MAP TEAM :

Programming & Development : Alexandra Zaïnal
Concept & original design : Baudouin d'Aumeries
Assistance for programming : Marc-Olivier Méhu
Technical & hardware support : Manuel Goepfert

Contact : metmap@orbifly.com




SOURCES & CREDITS :

   NOAA